Dewpoint
56 53 52 51 49 50 53 48 37 41 40 36 36 37 33 36 36 31 33 42 41 45 46 51 51 50 48 50 53 57 57 52 48 41 41 57 66 67 66 66 67 67 67 67 68 68 68 69 69 68 67 66 66 65 65 66 66 66 66 66 66 66 66 65 65 68 68 68 68 68 68 68 69 68 68 68 68 68 67 67 67 67 66 66 66 66 66 66 66 65 65 64 64 64 63 63 63
55 54 52 50 49 53 47 47 40 39 37 35 36 35 35 34 31 30 36 42 42 48 52 54 54 55 56 57 58 55 56 58 58 58 63 65 67 66 67 67 67 67 67 67 68 67 67 68 69 68 66 66 65 65 66 66 67 67 67 67 67 66 65 65 66 68 68 69 68 69 69 69 69 68 68 68 68 67 67 67 67 66 66 65 65 64 65 65 66 65 63 63 62 62 62 61 60
56 51 48 50 55 53 51 45 38 36 35 33 35 36 36 35 31 35 42 42 46 51 54 55 55 55 55 56 53 52 51 59 62 63 64 66 65 66 66 67 67 67 67 68 67 67 67 68 69 68 67 65 65 66 66 66 67 68 68 68 67 67 67 67 68 68 69 69 69 69 69 68 68 68 67 67 67 66 66 65 65 65 65 65 65 64 64 64 64 64 63 62 62 62 61 60 60
49 46 49 50 50 52 46 41 40 35 35 35 33 35 34 34 32 41 43 44 45 45 48 51 55 57 54 54 56 58 57 58 61 63 63 65 65 66 66 67 68 67 68 68 67 67 67 68 69 68 67 65 65 66 67 67 68 69 69 68 68 68 68 68 69 69 69 69 69 69 68 68 68 67 67 66 65 65 65 64 64 64 63 63 63 63 63 64 63 62 62 61 61 61 60 60 59
39 44 49 48 50 47 45 42 38 37 35 34 32 34 35 37 39 43 42 42 44 48 51 52 55 57 57 56 57 53 55 59 60 62 63 66 67 67 67 67 67 67 67 67 67 66 66 68 68 68 67 66 66 66 67 68 69 69 68 68 68 68 68 68 69 69 68 69 69 69 68 67 67 67 66 66 65 65 64 64 64 64 63 63 62 61 61 61 61 61 60 60 60 59 59 59 60
38 49 52 52 48 50 45 40 38 36 37 36 34 35 33 34 42 42 43 44 45 45 50 54 54 55 56 56 58 55 59 58 60 62 65 66 67 67 67 67 67 67 67 67 67 66 66 68 67 67 67 66 66 67 68 68 69 69 68 68 68 68 68 69 69 69 69 68 68 68 67 66 66 66 66 65 65 64 64 63 62 62 62 62 62 61 61 61 61 60 59 59 59 59 58 58 59
38 50 51 49 47 48 43 38 40 39 38 36 36 37 37 35 40 43 43 43 44 51 54 55 56 56 55 56 58 59 60 60 60 63 66 67 67 67 67 67 67 67 67 67 66 66 66 67 67 67 67 66 66 68 68 69 69 68 68 68 68 68 68 69 68 69 69 68 68 67 67 67 66 66 66 65 65 64 64 63 62 61 61 60 60 59 59 59 59 60 60 60 60 60 59 59 62
52 49 49 42 40 42 39 39 41 41 41 39 38 38 37 37 39 43 42 40 41 47 55 56 53 54 54 57 55 59 60 60 63 66 67 67 67 67 67 67 66 67 66 66 66 65 67 67 67 67 67 67 68 68 68 68 68 68 68 68 68 68 68 69 69 68 68 68 68 67 67 67 66 66 66 66 66 65 64 64 63 61 60 60 60 59 59 59 58 58 58 58 59 58 58 60 60
47 47 48 42 37 39 38 39 41 42 42 43 42 42 48 44 37 41 42 42 43 47 51 53 54 53 55 57 56 59 60 64 66 66 66 66 66 66 66 66 66 66 66 66 65 65 65 66 66 67 68 69 69 68 68 68 68 68 68 68 68 68 69 68 68 68 68 67 68 67 67 66 66 66 66 66 65 65 65 64 63 61 60 60 60 59 59 60 61 59 57 57 58 59 58 57 57
45 46 41 40 40 38 37 37 38 39 41 42 41 41 41 41 37 38 39 42 42 46 52 55 56 54 57 56 57 58 61 65 66 66 66 66 65 65 65 66 66 65 65 65 65 65 65 67 66 68 68 69 69 69 68 68 68 68 68 68 68 69 68 68 68 68 68 68 67 67 67 66 67 66 66 66 65 65 65 65 64 63 62 62 61 60 60 60 60 58 57 57 58 58 59 59 58
41 42 44 37 36 35 36 35 39 40 40 40 40 40 40 40 39 36 36 41 44 52 55 56 56 56 57 57 57 61 64 65 65 65 65 65 65 65 65 65 65 65 65 65 64 64 65 65 68 68 68 68 68 68 69 68 68 68 68 68 68 68 68 68 68 68 68 68 68 67 67 67 66 66 66 65 65 64 63 62 62 62 62 61 61 61 60 58 59 59 60 60 59 59 59 59 59
39 37 35 31 33 34 35 35 36 39 38 35 38 40 39 39 38 36 35 39 47 54 53 54 55 57 57 57 57 62 64 64 65 65 65 65 65 65 64 65 65 65 65 64 64 64 65 67 68 68 67 67 67 68 68 68 69 68 68 68 68 68 68 68 67 68 67 67 67 67 66 66 66 66 66 66 66 65 62 62 62 61 60 59 58 59 59 59 60 61 62 60 61 61 60 59 61
41 37 31 28 29 34 35 36 37 38 36 35 35 38 39 38 36 35 35 37 48 47 49 53 57 57 55 56 60 62 63 64 65 65 65 65 64 64 64 64 65 65 65 64 64 65 66 66 67 67 67 66 66 66 67 67 68 67 67 67 67 67 67 67 67 67 67 67 67 66 66 66 66 65 65 65 65 66 66 65 64 62 62 61 61 61 61 62 62 63 62 60 62 64 64 63 64
39 40 32 25 29 31 33 33 32 33 33 34 31 33 34 35 35 35 38 47 49 51 54 57 57 58 57 59 60 60 62 64 65 65 65 65 64 64 64 65 65 65 65 64 65 66 66 66 66 66 66 66 66 66 66 66 67 67 67 67 67 66 66 67 67 67 67 66 66 66 65 65 64 64 64 64 65 65 65 66 65 64 64 64 64 63 63 64 64 63 63 64 63 63 63 64 64
36 41 33 31 27 25 27 29 26 29 29 29 30 29 28 35 35 34 42 51 52 54 56 54 53 55 54 57 58 59 61 64 65 66 66 65 65 64 64 65 65 65 64 65 65 66 65 66 66 66 66 66 66 66 66 66 66 66 66 67 67 67 66 67 67 67 67 66 66 65 65 65 65 65 64 64 65 65 65 66 66 66 64 65 65 64 63 63 63 63 65 64 64 64 64 64 64
43 41 35 32 27 26 27 26 24 23 24 23 22 31 28 25 48 44 46 51 53 53 53 51 52 52 57 57 59 61 62 64 65 66 65 65 65 65 65 65 64 64 64 65 65 65 65 65 65 65 66 66 65 65 65 65 65 65 65 65 65 65 65 65 65 65 65 64 64 64 64 64 64 64 65 64 64 64 64 64 65 65 66 66 66 65 65 65 65 65 65 65 65 65 65 65 65
44 41 34 31 30 27 29 24 23 22 24 20 33 42 37 33 50 55 55 54 52 52 52 51 50 52 50 50 51 52 57 65 65 65 65 65 65 64 64 64 64 64 65 65 65 65 65 65 65 65 65 65 65 64 64 64 64 64 64 64 64 64 64 63 62 61 61 61 61 61 62 60 60 61 61 62 63 62 62 62 63 64 65 66 66 66 65 65 65 65 65 65 65 65 66 65 65
41 36 33 32 32 29 31 24 23 26 25 34 45 44 41 39 45 54 55 54 53 53 52 52 52 51 50 51 53 54 64 65 64 64 64 63 64 63 63 63 63 63 63 64 65 65 65 65 65 65 65 65 64 64 63 63 63 63 62 62 62 62 63 63 62 62 63 60 60 60 60 61 60 60 62 64 61 62 61 61 60 60 62 63 63 64 66 66 65 66 66 66 66 65 64 62 62
36 35 33 26 33 33 33 28 32 44 44 45 45 44 43 44 41 49 54 54 54 54 54 54 53 52 51 51 52 63 65 64 64 64 63 62 63 62 62 62 62 62 62 63 64 65 65 65 65 65 65 65 64 63 63 63 62 62 62 62 62 61 62 60 60 60 60 60 60 60 62 63 62 61 62 63 62 58 56 56 57 57 57 58 60 61 63 64 63 63 63 64 62 62 61 61 62
34 36 33 33 35 33 30 38 41 44 45 44 45 47 43 42 40 41 51 48 53 53 52 53 53 51 48 48 50 55 60 61 63 63 62 62 62 62 62 62 62 62 61 62 64 64 65 65 64 64 65 65 64 63 63 62 62 62 61 60 59 58 57 56 56 57 59 61 63 63 63 62 62 62 65 63 61 55 52 52 53 53 54 54 56 55 57 58 57 56 56 57 56 52 49 52 56
31 34 32 33 33 30 24 34 38 41 46 44 46 48 44 41 41 43 47 49 48 46 43 44 51 48 47 46 48 53 55 55 56 58 59 58 57 57 59 60 60 60 62 63 63 64 64 64 64 64 64 64 64 63 62 62 62 60 59 58 57 56 54 52 52 53 56 61 64 62 59 57 55 53 52 50 49 48 47 46 46 46 47 47 52 50 49 50 49 49 46 47 44 43 43 46 50
36 29 32 33 26 24 26 33 36 39 43 42 46 47 46 44 41 40 42 46 48 45 41 43 43 43 44 45 45 49 51 50 50 52 53 55 55 55 55 56 57 58 61 62 62 63 63 63 63 64 64 64 63 63 62 61 59 58 57 56 54 53 52 51 50 51 54 55 57 55 52 51 50 49 48 47 46 44 44 43 43 43 44 45 47 46 46 46 44 43 41 40 39 40 40 42 44
27 31 33 30 31 29 32 31 34 38 40 42 44 47 44 41 40 40 41 40 41 43 43 43 43 43 43 43 44 46 47 48 46 46 47 48 49 50 52 53 55 55 56 54 54 58 62 62 62 63 63 63 63 61 59 58 57 55 54 53 53 51 50 49 49 50 52 50 52 51 50 47 46 45 45 45 44 43 41 41 40 40 41 42 44 43 43 43 43 39 38 38 38 39 40 41 42
32 29 33 30 31 30 32 31 35 34 37 41 46 47 44 43 42 41 40 41 42 43 44 44 43 43 43 42 41 41 42 43 43 44 45 45 46 46 49 51 52 54 53 50 50 51 60 61 62 63 62 62 60 57 56 55 53 52 52 52 51 50 48 47 47 48 50 49 49 47 47 46 44 43 42 41 41 40 39 39 38 38 39 40 41 41 40 40 39 38 37 37 37 38 40 40 42
26 26 31 30 30 33 33 32 29 32 33 39 45 44 42 43 42 41 40 41 42 42 44 43 43 43 43 42 41 42 41 41 41 42 44 45 46 46 47 49 50 51 50 50 48 48 50 61 62 61 61 59 57 55 53 52 51 49 48 48 47 47 44 44 45 46 47 49 48 45 45 43 41 40 39 38 38 37 38 37 37 37 38 39 39 38 38 37 36 36 36 36 37 37 38 39 41
32 31 33 32 31 31 31 32 32 31 32 37 37 42 42 41 43 40 40 38 40 43 42 42 42 41 41 41 41 42 42 41 41 40 43 44 44 45 45 46 48 48 49 49 47 47 47 52 60 59 58 57 55 53 51 49 48 47 46 45 44 43 42 42 42 42 43 46 49 45 42 41 39 38 38 38 37 37 37 37 37 37 37 38 38 37 37 35 35 35 35 35 36 37 37 40 39
34 34 34 31 30 32 33 28 32 34 34 34 37 40 42 42 44 41 41 41 41 41 41 41 41 40 40 40 41 41 41 40 39 41 42 43 43 43 43 45 46 47 48 48 48 47 46 49 56 57 56 54 53 51 49 47 46 45 45 44 43 42 41 40 39 39 40 42 47 49 41 40 38 38 37 37 37 37 36 36 36 36 36 37 37 36 36 34 34 34 35 35 35 35 36 38 39
34 34 32 31 32 31 31 29 27 33 28 38 35 39 44 44 40 39 41 41 41 40 39 39 40 40 40 39 40 40 40 41 41 40 40 41 41 42 42 43 44 46 47 47 48 48 45 45 47 52 53 52 51 49 47 45 43 43 42 41 41 40 40 39 38 38 40 40 42 45 49 39 39 38 37 37 36 36 35 35 35 35 35 36 37 36 34 33 33 33 35 34 33 33 33 36 38
29 30 24 29 28 27 30 24 26 31 28 33 35 27 38 42 43 40 41 42 41 40 39 38 39 39 39 39 39 40 40 40 40 40 39 41 41 42 41 43 44 44 46 47 47 47 44 44 47 43 44 49 47 45 43 42 40 40 39 39 40 41 38 38 39 36 37 38 39 40 43 41 37 37 36 36 37 35 35 34 34 35 34 35 36 36 34 31 30 30 30 32 30 30 31 32 37
26 24 27 27 26 22 25 29 28 29 28 34 29 12 24 38 39 41 42 41 41 39 38 38 38 38 38 39 38 38 39 40 39 39 40 41 41 42 41 42 43 44 45 47 46 45 45 46 44 44 42 43 42 40 39 37 36 37 37 36 38 36 36 36 36 37 36 36 37 37 37 37 36 35 34 34 33 33 33 33 34 33 34 34 35 35 33 30 28 28 29 27 32 28 29 30 33
10 16 27 23 22 20 25 26 27 21 29 33 25 8 9 37 40 41 41 41 40 38 37 37 37 38 38 38 38 37 37 38 38 39 39 39 40 41 41 42 42 43 45 45 45 44 44 46 44 42 41 38 38 38 37 35 34 34 34 34 34 35 34 34 34 34 34 35 35 35 35 36 35 35 34 33 32 31 31 31 32 32 33 34 33 35 34 31 27 26 28 25 26 26 27 31 31
24 9 3 20 21 22 25 29 26 21 26 34 22 13 8 27 39 41 41 41 41 38 38 37 37 37 37 37 38 37 36 37 37 38 39 39 40 40 41 41 42 43 43 44 45 45 42 44 46 42 41 38 37 37 36 35 35 34 34 35 33 33 33 33 33 33 33 33 34 33 34 34 33 33 32 32 30 30 30 30 31 32 33 33 33 33 34 32 29 28 26 26 25 26 28 28 30
18 13 13 14 19 22 21 32 36 37 32 31 24 15 28 32 39 39 40 41 41 37 37 37 38 37 37 37 37 37 36 36 36 37 38 39 40 40 40 41 42 42 43 43 44 44 43 42 43 43 42 43 40 34 35 34 35 34 34 34 35 32 31 31 32 32 32 32 32 32 33 33 32 32 31 31 29 29 29 29 30 31 32 32 32 32 32 34 32 29 26 27 26 26 27 28 30
15 20 15 19 17 18 16 25 27 33 35 28 30 25 29 34 35 37 38 38 39 36 36 37 37 37 37 37 36 36 36 36 36 35 37 38 40 39 40 41 41 41 42 42 43 44 43 43 43 42 42 42 43 43 36 33 33 34 34 35 36 35 36 32 30 30 30 31 32 32 33 32 32 31 31 30 30 29 29 30 30 30 31 31 31 31 32 32 32 28 25 27 26 26 26 27 30
14 16 18 18 18 17 17 23 25 32 33 28 30 31 30 33 34 34 35 37 37 35 36 36 35 35 36 36 36 36 36 36 35 35 36 37 38 39 39 40 41 41 42 42 42 43 44 43 44 43 40 41 42 38 34 33 33 33 33 33 33 33 34 36 37 30 29 29 31 33 33 31 32 30 31 30 28 28 28 28 29 30 30 30 29 29 29 31 31 29 25 25 28 27 28 28 29
14 18 18 17 11 11 11 25 33 33 31 29 29 29 29 30 32 33 33 35 35 36 34 33 34 35 35 36 36 35 35 35 35 35 36 37 37 38 39 40 40 40 41 41 41 42 42 43 42 42 43 40 40 40 37 34 33 33 31 32 32 32 32 32 31 38 32 29 31 31 31 31 31 29 29 28 27 27 27 27 28 29 29 29 28 28 28 28 29 29 28 26 25 27 28 29 30
18 18 15 15 14 16 20 21 31 33 30 25 27 28 28 29 30 31 32 33 34 35 33 33 33 34 35 35 35 35 35 34 35 35 35 36 37 38 39 39 39 40 40 40 41 40 41 42 42 41 43 43 40 40 41 37 31 31 32 31 30 30 30 30 30 29 28 29 29 29 29 30 30 29 28 27 26 28 26 26 26 27 28 28 28 27 27 27 29 29 28 28 26 25 26 27 28
16 16 12 12 16 6 15 24 31 32 23 23 29 28 28 30 29 29 30 30 31 34 34 33 33 33 34 34 34 35 35 35 35 34 35 35 36 37 38 39 38 38 39 39 39 40 40 40 40 40 42 42 42 43 42 42 42 38 34 32 29 29 29 29 29 28 29 30 28 27 27 27 29 29 28 27 25 25 25 25 26 26 26 26 27 28 27 30 25 27 28 25 26 25 25 26 28
19 12 13 11 11 13 15 22 29 31 22 20 26 26 26 28 31 31 29 30 31 33 34 34 34 33 33 34 34 34 33 34 34 34 35 35 36 36 37 38 38 39 39 38 39 39 39 39 40 40 41 41 42 42 41 40 40 35 36 33 28 26 26 25 25 25 26 26 27 28 26 26 26 26 27 27 26 25 24 24 24 25 25 27 24 23 24 24 25 27 29 27 26 25 25 26 26
13 12 10 9 14 8 8 16 25 27 23 20 24 24 25 25 27 31 32 31 29 29 31 33 33 33 33 33 34 33 32 33 33 33 34 34 35 35 36 37 37 38 38 38 38 38 38 38 39 39 39 40 40 41 40 40 39 38 37 26 24 23 22 24 22 21 21 21 22 23 23 24 25 25 25 24 24 23 23 23 23 23 23 25 24 24 24 25 26 28 30 30 33 22 23 23 25
19 16 15 14 13 8 8 11 20 19 19 24 25 20 19 17 20 24 28 31 30 29 28 29 31 32 33 34 34 34 33 32 32 33 34 34 34 35 35 36 36 37 37 38 38 38 37 38 39 39 39 39 39 39 39 39 38 37 36 33 33 30 30 27 27 27 27 24 22 21 22 23 23 23 24 24 24 23 23 23 22 22 22 23 24 24 24 26 28 29 30 30 25 24 22 23 23
18 19 16 15 14 10 14 15 17 14 14 18 23 8 2 11 12 18 23 23 27 29 29 28 29 31 31 31 33 33 34 32 32 32 33 34 34 35 35 35 35 35 36 37 38 38 38 39 39 39 37 38 38 38 37 37 36 35 34 33 33 33 31 32 31 28 28 28 28 30 28 27 24 22 22 24 25 24 23 23 22 21 22 23 24 23 23 23 24 24 27 25 25 26 22 21 20
16 16 21 20 20 14 16 19 13 5 4 17 21 10 10 13 15 18 16 18 23 27 28 29 29 29 30 31 32 33 33 33 32 32 32 33 34 34 35 35 35 35 35 36 37 37 37 38 38 39 38 37 37 36 37 38 37 37 36 36 35 34 32 34 34 33 31 32 33 33 34 34 33 34 32 27 23 23 23 22 23 23 21 22 23 22 22 23 24 25 25 24 24 25 24 22 21
17 19 25 24 22 20 20 20 16 15 18 20 22 18 13 13 16 16 18 19 21 21 24 27 28 29 30 30 31 32 32 32 32 32 32 33 33 34 34 35 35 34 35 36 36 36 36 37 37 38 39 39 37 37 39 38 37 38 37 36 37 34 31 30 30 29 28 26 25 28 31 34 33 33 33 30 29 26 26 25 24 24 26 22 23 22 22 22 24 26 24 24 25 24 22 21 20
19 21 23 21 22 21 20 18 16 17 14 15 15 16 13 14 17 17 21 18 18 20 22 24 26 27 29 30 31 31 32 32 32 32 32 32 33 33 34 34 34 34 35 35 35 35 36 36 36 36 37 37 37 37 38 39 39 37 37 36 34 35 33 32 34 34 33 33 32 32 31 26 23 23 23 25 23 26 25 24 25 23 24 22 23 23 23 23 23 23 23 23 23 24 23 22 20
21 23 23 23 22 22 20 17 15 13 10 10 13 16 12 11 14 16 19 18 19 19 21 23 25 26 27 29 30 31 31 31 31 32 32 32 33 33 33 33 33 33 34 35 34 35 35 35 35 35 36 36 37 37 37 37 36 37 36 34 33 32 31 32 34 33 32 32 28 27 26 25 28 27 24 25 26 26 26 27 29 28 27 26 25 25 25 25 25 25 24 22 22 23 23 22 21
26 22 18 17 18 16 14 10 12 6 4 8 11 13 12 9 10 11 12 15 18 19 20 22 23 25 26 28 29 30 31 31 31 31 31 32 32 32 33 32 32 33 33 33 34 34 34 34 34 34 34 35 36 35 35 35 36 35 34 33 30 29 29 28 27 26 26 26 25 25 25 23 22 22 23 24 27 28 27 26 25 26 26 26 24 23 23 24 23 24 23 23 22 22 21 21 21
24 15 13 16 14 10 4 -0 6 6 4 6 8 9 15 9 7 12 13 11 15 15 16 18 20 24 26 27 28 30 31 31 31 31 30 31 31 31 32 32 31 32 32 32 32 33 33 33 33 33 33 34 35 35 35 34 33 32 31 30 29 27 26 26 24 23 23 23 22 23 24 25 27 28 29 30 30 30 29 29 25 24 22 22 22 22 22 22 22 22 22 22 21 21 22 22 20
21 13 10 8 0 3 -1 3 3 7 5 6 9 10 5 12 11 9 11 12 14 14 15 18 19 20 25 27 28 30 31 31 31 31 30 30 30 30 31 31 31 31 30 31 31 32 32 32 32 32 32 33 33 34 33 32 31 29 29 28 27 26 25 23 22 22 24 24 26 28 28 29 30 30 31 31 30 29 30 25 22 20 20 20 21 21 22 22 22 22 21 21 21 21 21 20 20
19 17 7 2 -1 -3 -5 -1 -0 1 6 8 10 12 10 12 14 13 14 15 13 13 16 17 17 20 22 26 28 29 31 31 31 31 30 30 30 30 30 30 30 30 30 30 30 31 31 31 31 31 31 32 32 32 31 30 29 27 26 26 26 25 24 24 25 25 25 26 27 27 27 29 30 30 30 30 30 27 26 22 20 19 21 21 21 22 22 22 22 22 21 20 21 20 20 20 20
22 14 16 13 1 -3 -4 -3 -3 1 5 10 11 7 8 11 15 17 15 15 16 15 14 16 18 18 20 25 27 29 30 31 31 31 30 30 30 30 30 30 29 29 29 29 29 29 29 30 30 30 30 30 30 30 30 28 28 26 26 26 27 28 28 29 28 28 27 27 28 28 28 29 29 29 29 28 26 23 21 18 18 18 19 20 21 22 23 21 22 22 23 22 21 20 20 21 20
17 14 18 11 12 14 4 2 -0 4 12 12 11 12 15 15 15 18 20 19 18 18 17 17 17 20 23 26 27 29 30 31 31 31 30 30 30 29 29 29 29 29 28 28 28 28 28 28 29 29 29 29 29 30 29 28 28 28 29 29 30 31 31 30 30 29 28 27 27 27 28 28 28 29 29 26 24 20 19 18 18 18 19 19 20 20 20 20 21 20 20 21 21 23 20 19 19
18 23 19 19 20 17 15 13 13 12 11 12 15 15 14 15 14 14 14 15 18 20 19 18 17 19 25 26 27 28 29 31 31 31 30 30 29 29 29 29 29 28 27 27 27 28 27 28 28 28 28 28 28 28 28 28 29 29 29 29 29 29 28 27 27 27 28 28 29 29 29 30 29 29 27 25 22 19 18 17 17 17 17 19 19 20 21 21 21 20 20 20 20 20 21 19 19
23 20 22 27 24 23 19 11 13 12 8 9 16 10 11 11 10 26 25 24 23 24 23 22 20 20 25 26 27 28 29 30 31 31 30 30 29 29 28 29 28 27 27 27 27 27 27 27 27 27 27 27 27 27 28 28 28 28 28 28 27 27 26 25 26 27 27 27 27 26 25 25 25 24 22 21 19 18 19 18 16 16 16 18 19 19 20 20 20 20 20 20 21 21 21 21 21
23 23 24 21 18 17 22 18 10 8 5 6 9 12 12 12 13 17 16 19 22 25 24 25 24 22 24 26 27 28 29 30 31 30 30 29 29 28 28 28 28 27 27 26 26 27 26 26 26 26 26 26 26 27 27 27 27 27 28 27 26 25 26 26 26 25 24 23 21 21 21 21 21 21 21 18 16 16 15 15 15 15 16 17 18 19 20 20 20 19 20 19 20 19 19 19 20
30 31 28 28 26 23 19 17 18 13 9 9 10 14 12 19 18 21 22 26 29 28 26 26 26 24 25 25 27 28 29 30 30 30 30 29 29 28 28 28 28 26 26 26 26 26 26 26 26 26 26 26 26 26 27 26 26 26 26 25 25 25 25 24 23 21 20 19 18 18 18 17 17 17 16 16 15 15 15 15 14 15 15 16 17 18 19 19 19 19 19 19 19 18 18 18 18
25 26 25 27 25 27 26 25 22 18 15 14 13 11 12 14 22 24 26 27 28 30 26 27 28 27 26 26 27 28 29 30 30 30 30 29 28 28 27 27 27 26 26 26 26 25 25 25 25 25 25 25 25 24 25 24 24 23 23 22 21 21 21 20 19 17 17 17 18 18 16 16 17 17 15 15 15 14 14 14 14 16 15 16 16 17 19 19 20 18 18 18 18 18 18 17 18
25 24 23 23 23 20 17 13 23 21 18 14 13 10 15 17 30 26 28 28 29 26 24 25 28 28 27 27 28 28 29 29 30 30 29 29 28 27 27 27 27 26 25 25 25 25 24 24 24 24 24 23 22 23 23 23 22 22 20 19 18 19 18 17 15 15 15 17 18 18 17 16 15 15 14 14 14 14 13 14 13 13 14 15 16 17 18 18 19 19 18 19 18 17 17 16 16